Weather History for K06D - December, 2011

Change the Weather History Date:

Thursday, December 1, 2011

  Actual Average (KRUG) Record (KRUG)
Temperature  
Mean Temperature 19 °F -  
Max Temperature 26 °F 26 °F 52 °F (1969)
Min Temperature 12 °F 6 °F -18 °F (1978)
Degree Days  
Heating Degree Days 46    
Moisture  
Dew Point 14 °F    
Average Humidity 81    
Maximum Humidity 93    
Minimum Humidity 67    
Precipitation  
Precipitation 0.00 in - - ()
Sea Level Pressure  
Sea Level Pressure 30.42 in    
Wind  
Wind Speed 11 mph (West)    
Max Wind Speed 21 mph    
Max Gust Speed 26 mph    
Visibility 10 miles    
Events Snow    
Averages and records for this station are not official NWS values.
T = Trace of Precipitation, MM = Missing Value Source: NWS Daily Summary

Daily Weather History Graph

Daily Weather History Graph

Search for Another Location

Airport or City:

Trip Planner

Search our weather history database for the weather conditions in past years. The results will help you decide how hot, cold, wet, or windy it might be!

Date:

Astronomy

Dec. 01, 2011 Rise Set
Actual Time 8:10 AM CST 4:44 PM CST
Civil Twilight 7:34 AM CST 5:20 PM CST
Nautical Twilight 6:54 AM CST 6:00 PM CST
Astronomical Twilight 6:16 AM CST 6:38 PM CST
Moon 12:34 PM CST (12/1) No Moon Set
Length of Visible Light 9h 46m
Length of Day
8h 33m
Waxing Crescent, 43% of the Moon is Illuminated
Dec 1
Waxing Crescent
Dec 2
First Quarter
Dec 10
Full
Dec 17
Last Quarter
Dec 24
New

Hourly Weather History & Observations

Time (CST) Temp. Windchill Dew Point Humidity Pressure Visibility Wind Dir Wind Speed Gust Speed Precip Events Conditions
12:15 AM 15.8 °F 3.4 °F 8.6 °F 73% 30.40 in 10.0 mi North 10.4 mph - N/A   Overcast
12:35 AM 15.8 °F 1.4 °F 8.6 °F 73% 30.40 in 10.0 mi North 13.8 mph - N/A   Overcast
12:55 AM 14.0 °F 1.2 °F 8.6 °F 79% 30.41 in 10.0 mi North 10.4 mph - N/A   Overcast
1:15 AM 14.0 °F 0.5 °F 8.6 °F 79% 30.41 in 10.0 mi North 11.5 mph - N/A   Mostly Cloudy
1:35 AM 14.0 °F 1.2 °F 8.6 °F 79% 30.42 in 10.0 mi North 10.4 mph - N/A   Scattered Clouds
1:55 AM 14.0 °F 2.0 °F 8.6 °F 79% 30.43 in 10.0 mi North 9.2 mph - N/A   Mostly Cloudy
2:15 AM 14.0 °F 2.9 °F 8.6 °F 79% 30.44 in 10.0 mi NNW 8.1 mph - N/A   Mostly Cloudy
2:35 AM 14.0 °F 2.9 °F 8.6 °F 79% 30.45 in 10.0 mi NNW 8.1 mph - N/A   Partly Cloudy
2:55 AM 14.0 °F 2.0 °F 10.4 °F 86% 30.46 in 10.0 mi NNW 9.2 mph - N/A   Clear
3:15 AM 12.2 °F -1.0 °F 10.4 °F 92% 30.47 in 10.0 mi NNW 10.4 mph - N/A   Scattered Clouds
3:35 AM 12.2 °F 0.7 °F 8.6 °F 85% 30.47 in 10.0 mi NNW 8.1 mph - N/A   Mostly Cloudy
3:55 AM 12.2 °F -0.2 °F 10.4 °F 92% 30.48 in 10.0 mi NNW 9.2 mph - N/A   Mostly Cloudy
4:15 AM 14.0 °F 0.5 °F 8.6 °F 79% 30.47 in 10.0 mi NNW 11.5 mph - N/A   Overcast
4:35 AM 14.0 °F 1.2 °F 6.8 °F 73% 30.47 in 10.0 mi North 10.4 mph - N/A   Overcast
4:55 AM 14.0 °F 0.5 °F 5.0 °F 67% 30.48 in 10.0 mi NNW 11.5 mph - N/A   Overcast
5:15 AM 14.0 °F 2.0 °F 6.8 °F 73% 30.48 in 10.0 mi NNW 9.2 mph - N/A   Overcast
5:35 AM 14.0 °F 2.0 °F 6.8 °F 73% 30.49 in 10.0 mi NNW 9.2 mph - N/A   Overcast
5:55 AM 14.0 °F 2.0 °F 6.8 °F 73% 30.50 in 10.0 mi NNW 9.2 mph - N/A   Overcast
6:15 AM 14.0 °F 5.1 °F 8.6 °F 79% 30.50 in 10.0 mi NW 5.8 mph - N/A   Mostly Cloudy
6:35 AM 14.0 °F 6.5 °F 8.6 °F 79% 30.50 in 10.0 mi WNW 4.6 mph - N/A   Overcast
6:55 AM 14.0 °F 6.5 °F 8.6 °F 79% 30.50 in 10.0 mi WNW 4.6 mph - N/A   Overcast
7:15 AM 14.0 °F 6.5 °F 10.4 °F 86% 30.50 in 10.0 mi SW 4.6 mph - N/A   Overcast
7:55 AM 15.8 °F 7.2 °F 10.4 °F 79% 30.49 in 10.0 mi WSW 5.8 mph - N/A   Overcast
8:15 AM 15.8 °F 7.2 °F 12.2 °F 86% 30.49 in 10.0 mi SW 5.8 mph - N/A   Overcast
8:35 AM 15.8 °F 7.2 °F 12.2 °F 86% 30.49 in 10.0 mi SW 5.8 mph - N/A   Overcast
8:55 AM 15.8 °F 7.2 °F 12.2 °F 86% 30.50 in 10.0 mi SW 5.8 mph - N/A   Overcast
9:15 AM 15.8 °F 6.1 °F 14.0 °F 93% 30.49 in 10.0 mi SW 6.9 mph - N/A   Overcast
9:35 AM 17.6 °F 6.4 °F 14.0 °F 86% 30.49 in 10.0 mi SW 9.2 mph - N/A   Overcast
9:55 AM 17.6 °F 7.3 °F 15.8 °F 93% 30.49 in 10.0 mi WSW 8.1 mph - N/A   Overcast
10:15 AM 19.4 °F 8.6 °F 15.8 °F 86% 30.49 in 10.0 mi WSW 9.2 mph - N/A   Overcast
10:35 AM 19.4 °F 6.6 °F 14.0 °F 80% 30.49 in 10.0 mi WSW 12.7 mph - N/A Snow Light Snow
10:55 AM 19.4 °F 6.6 °F 14.0 °F 80% 30.49 in 10.0 mi WSW 12.7 mph - N/A   Overcast
11:15 AM 21.2 °F 8.3 °F 14.0 °F 74% 30.48 in 10.0 mi WSW 13.8 mph - N/A   Overcast
11:35 AM 21.2 °F 8.3 °F 14.0 °F 74% 30.47 in 10.0 mi WSW 13.8 mph 19.6 mph N/A   Overcast
11:55 AM 21.2 °F 7.8 °F 14.0 °F 74% 30.46 in 10.0 mi WSW 15.0 mph 18.4 mph N/A   Overcast
12:15 PM 23.0 °F 9.6 °F 15.8 °F 74% 30.45 in 10.0 mi WSW 16.1 mph 21.9 mph N/A   Overcast
12:35 PM 23.0 °F 11.1 °F 15.8 °F 74% 30.43 in 10.0 mi WSW 12.7 mph - N/A   Overcast
12:55 PM 24.8 °F 14.0 °F 15.8 °F 69% 30.42 in 10.0 mi WSW 11.5 mph 17.3 mph N/A   Mostly Cloudy
1:15 PM 24.8 °F 13.4 °F 17.6 °F 74% 30.41 in 10.0 mi SW 12.7 mph 18.4 mph N/A   Mostly Cloudy
1:35 PM 24.8 °F 11.1 °F 17.6 °F 74% 30.38 in 10.0 mi SW 18.4 mph - N/A   Overcast
1:55 PM 24.8 °F 11.5 °F 19.4 °F 80% 30.37 in 10.0 mi WSW 17.3 mph 25.3 mph N/A   Overcast
2:15 PM 24.8 °F 10.3 °F 19.4 °F 80% 30.36 in 10.0 mi SW 20.7 mph 24.2 mph N/A   Mostly Cloudy
2:35 PM 24.8 °F 11.1 °F 19.4 °F 80% 30.34 in 10.0 mi SW 18.4 mph 24.2 mph N/A   Partly Cloudy
2:55 PM 26.6 °F 14.3 °F 19.4 °F 74% 30.33 in 10.0 mi WSW 16.1 mph 24.2 mph N/A   Clear
3:15 PM 26.6 °F 13.4 °F 19.4 °F 74% 30.32 in 10.0 mi WSW 18.4 mph - N/A   Partly Cloudy
3:35 PM 26.6 °F 13.1 °F 21.2 °F 80% 30.31 in 10.0 mi WSW 19.6 mph 26.5 mph N/A   Scattered Clouds
3:55 PM 26.6 °F 13.8 °F 23.0 °F 86% 30.31 in 10.0 mi SW 17.3 mph - N/A   Clear
4:15 PM 26.6 °F 14.3 °F 23.0 °F 86% 30.30 in 10.0 mi SW 16.1 mph 20.7 mph N/A   Clear
4:35 PM 24.8 °F 13.4 °F 23.0 °F 93% 30.28 in 10.0 mi SW 12.7 mph - N/A   Clear
4:55 PM 24.8 °F 14.6 °F 23.0 °F 93% 30.27 in 10.0 mi SSW 10.4 mph - N/A   Clear
5:15 PM 24.8 °F 13.4 °F 21.2 °F 86% 30.26 in 10.0 mi SW 12.7 mph - N/A   Clear
5:35 PM 24.8 °F 11.9 °F 21.2 °F 86% 30.24 in 10.0 mi SW 16.1 mph 21.9 mph N/A   Clear
5:55 PM 24.8 °F 11.5 °F 21.2 °F 86% 30.22 in 10.0 mi SW 17.3 mph - N/A   Clear
6:15 PM 24.8 °F 11.1 °F 21.2 °F 86% 30.20 in 10.0 mi SW 18.4 mph 25.3 mph N/A   Mostly Cloudy
6:35 PM 24.8 °F 11.5 °F 23.0 °F 93% 30.18 in 10.0 mi SW 17.3 mph 23.0 mph N/A   Scattered Clouds
6:55 PM 23.0 °F 9.6 °F 23.0 °F 100% 30.16 in 10.0 mi SW 16.1 mph - N/A   Scattered Clouds
7:15 PM 23.0 °F 8.3 °F 23.0 °F 100% 30.15 in 10.0 mi SW 19.6 mph 26.5 mph N/A   Partly Cloudy
7:35 PM 23.0 °F 8.0 °F 21.2 °F 93% 30.13 in 10.0 mi SW 20.7 mph 27.6 mph N/A   Clear
7:55 PM 23.0 °F 8.7 °F 23.0 °F 100% 30.12 in 10.0 mi SW 18.4 mph 29.9 mph N/A   Clear
8:15 PM 23.0 °F 8.3 °F 21.2 °F 93% 30.11 in 10.0 mi SW 19.6 mph 27.6 mph N/A   Clear
8:35 PM 21.2 °F 6.4 °F 21.2 °F 100% 30.09 in 10.0 mi SW 18.4 mph 26.5 mph N/A   Clear
8:55 PM 21.2 °F 5.6 °F 21.2 °F 100% 30.08 in 10.0 mi SW 20.7 mph 28.8 mph N/A   Clear
9:15 PM 21.2 °F 4.2 °F 21.2 °F 100% 30.06 in 10.0 mi SW 25.3 mph 32.2 mph N/A   Clear
9:35 PM 21.2 °F 4.5 °F 21.2 °F 100% 30.05 in 10.0 mi SW 24.2 mph 31.1 mph N/A   Clear
9:55 PM 21.2 °F 4.5 °F 21.2 °F 100% 30.04 in 10.0 mi SW 24.2 mph 32.2 mph N/A   Clear
10:15 PM 21.2 °F 4.5 °F 21.2 °F 100% 30.03 in 10.0 mi SW 24.2 mph 32.2 mph N/A   Clear
10:35 PM 21.2 °F 4.9 °F 19.4 °F 93% 30.02 in 10.0 mi SW 23.0 mph 27.6 mph N/A   Clear
10:55 PM 19.4 °F 2.5 °F 19.4 °F 100% 30.00 in 10.0 mi SW 23.0 mph 28.8 mph N/A   Clear
11:15 PM 19.4 °F 3.2 °F 19.4 °F 100% 29.99 in 10.0 mi SW 20.7 mph 31.1 mph N/A   Clear
11:35 PM 19.4 °F 2.8 °F 19.4 °F 100% 29.98 in 10.0 mi SW 21.9 mph 29.9 mph N/A   Clear
11:55 PM 21.2 °F 5.2 °F 19.4 °F 93% 29.97 in 10.0 mi SW 21.9 mph 28.8 mph N/A   Clear